FW3260 Weather Reports


Display with metric or nautical units.
time (UTC)temp
F
wind
direction
speed
MPH
gust
MPH
rain 1hr
in
rain 24hr
in
rain mn
in
humidity
%
barometer
mb
20260506021019 64 0 2.0 7.0 0.00 0.00 0.00 65 1010.7
20260506020019 64 315 2.0 7.0 0.00 0.00 0.00 64 1010.5
20260506015019 65 315 2.0 6.0 0.00 0.00 0.00 63 1010.5
20260506014019 65 338 3.0 9.0 0.00 0.00 0.00 62 1010.4
20260506013019 65 270 3.0 8.0 0.00 0.00 0.00 62 1010.2
20260506012020 66 315 3.0 9.0 0.00 0.00 0.00 61 1010.2
20260506011019 66 293 3.0 6.0 0.00 0.00 0.00 61 1010.0
20260506010019 67 0 3.0 10.0 0.00 0.00 0.00 60 1009.8
20260506005020 67 315 4.0 16.0 0.00 0.00 0.00 60 1009.6
20260506004019 68 293 4.0 10.0 0.00 0.00 0.00 59 1009.6
20260506003020 68 315 4.0 9.0 0.00 0.00 0.00 57 1009.3
20260506002019 69 315 3.0 9.0 0.00 0.00 0.00 57 1009.2
20260506001019 69 180 3.0 12.0 0.00 0.00 0.00 55 1008.9
20260506000039 70 315 4.0 12.0 0.00 0.00 0.00 54 1008.7
20260505235019 71 315 4.0 10.0 0.00 0.00 0.00 53 1008.5
20260505234019 71 315 4.0 10.0 0.00 0.00 0.00 51 1008.3
20260505233019 72 293 4.0 11.0 0.00 0.00 0.00 50 1008.2
20260505232019 73 293 4.0 12.0 0.00 0.00 0.00 49 1008.2
20260505231019 73 315 4.0 15.0 0.00 0.00 0.00 48 1007.9
20260505230019 74 315 4.0 10.0 0.00 0.00 0.00 47 1007.9
20260505225019 74 315 5.0 13.0 0.00 0.00 0.00 47 1007.9
20260505224019 74 315 5.0 16.0 0.00 0.00 0.00 46 1007.7
20260505223019 75 293 5.0 17.0 0.00 0.00 0.00 45 1007.6
20260505222039 75 270 5.0 12.0 0.00 0.00 0.00 45 1007.3
20260505221019 76 315 5.0 15.0 0.00 0.00 0.00 46 1007.0
20260505220019 77 338 4.0 12.0 0.00 0.00 0.00 44 1007.4
20260505215019 78 315 4.0 13.0 0.00 0.00 0.00 44 1007.6
20260505214019 78 315 5.0 14.0 0.00 0.00 0.00 44 1007.4
20260505213019 79 293 4.0 9.0 0.00 0.00 0.00 44 1007.3
20260505212019 79 293 7.0 16.0 0.00 0.00 0.00 41 1007.2
20260505211039 80 315 6.0 16.0 0.00 0.00 0.00 41 1007.0
20260505210018 81 315 5.0 16.0 0.00 0.00 0.00 40 1006.7
20260505205018 81 315 4.0 11.0 0.00 0.00 0.00 39 1006.8
20260505204019 81 23 4.0 11.0 0.00 0.00 0.00 39 1006.9
20260505203018 82 293 7.0 15.0 0.00 0.00 0.00 37 1006.7
20260505202059 82 338 6.0 17.0 0.00 0.00 0.00 37 1006.7
20260505201018 83 315 5.0 17.0 0.00 0.00 0.00 37 1006.8
20260505200018 83 293 4.0 12.0 0.00 0.00 0.00 38 1006.9
20260505195018 82 315 6.0 16.0 0.00 0.00 0.00 37 1006.9
20260505194018 82 293 6.0 15.0 0.00 0.00 0.00 38 1007.1
20260505193019 82 293 5.0 18.0 0.00 0.00 0.00 38 1007.0
20260505192018 82 315 5.0 13.0 0.00 0.00 0.00 40 1007.2
20260505191018 82 293 6.0 15.0 0.00 0.00 0.00 40 1007.5
20260505190018 83 315 6.0 17.0 0.00 0.00 0.00 38 1007.3
20260505185018 82 315 5.0 12.0 0.00 0.00 0.00 38 1007.4
20260505184018 83 315 6.0 16.0 0.00 0.00 0.00 39 1007.5
20260505183019 83 293 4.0 14.0 0.00 0.00 0.00 40 1007.7
20260505182038 83 270 5.0 13.0 0.00 0.00 0.00 39 1008.0
20260505181038 83 338 6.0 14.0 0.00 0.00 0.00 40 1008.1
20260505180038 83 293 6.0 20.0 0.00 0.00 0.00 38 1007.8
20260505175019 83 293 3.0 8.0 0.00 0.00 0.00 39 1008.1
20260505174038 82 315 6.0 14.0 0.00 0.00 0.00 40 1008.3
20260505173018 82 315 3.0 10.0 0.00 0.00 0.00 41 1008.6
20260505172018 81 293 4.0 15.0 0.00 0.00 0.00 42 1008.9
20260505171018 81 315 3.0 8.0 0.00 0.00 0.00 45 1009.1
20260505170018 80 315 4.0 14.0 0.00 0.00 0.00 44 1009.1
20260505165018 80 225 3.0 8.0 0.00 0.00 0.00 45 1009.1
20260505164018 79 293 3.0 11.0 0.00 0.00 0.00 48 1009.4
20260505163039 78 293 3.0 10.0 0.00 0.00 0.00 49 1009.6
20260505162018 77 23 2.0 7.0 0.00 0.00 0.00 50 1009.8
20260505161018 76 315 3.0 7.0 0.00 0.00 0.00 49 1010.1
20260505153018 72 315 3.0 9.0 0.00 0.00 0.00 56 1010.6
20260505152018 71 293 2.0 8.0 0.00 0.00 0.00 58 1010.6
20260505151018 70 315 4.0 10.0 0.00 0.00 0.00 56 1010.8
20260505125018 63 315 1.0 4.0 0.00 0.00 0.00 69 1011.1
20260505124018 63 293 4.0 13.0 0.00 0.00 0.00 68 1011.2
20260505123017 62 315 1.0 8.0 0.00 0.00 0.00 72 1011.1
20260505122037 62 293 2.0 5.0 0.00 0.00 0.00 70 1011.3
20260505121017 61 315 3.0 7.0 0.00 0.00 0.00 70 1011.1
20260505120040 61 315 2.0 4.0 0.00 0.00 0.00 72 1011.0
20260505115039 60 315 2.0 6.0 0.00 0.00 0.00 74 1011.1
20260505114019 59 315 3.0 7.0 0.00 0.00 0.00 75 1010.6
20260505113019 58 338 2.0 5.0 0.00 0.00 0.00 76 1010.5
20260505112019 58 315 2.0 5.0 0.00 0.00 0.00 77 1010.7
20260505111019 57 315 1.0 3.0 0.00 0.00 0.00 79 1010.4
20260505102019 53 338 1.0 4.0 0.00 0.00 0.00 82 1010.4
20260505101017 53 315 1.0 4.0 0.00 0.00 0.00 81 1010.4
20260505100019 52 180 1.0 2.0 0.00 0.00 0.00 81 1010.4
20260505095019 52 180 1.0 4.0 0.00 0.00 0.00 81 1010.3
20260505094019 52 0 1.0 4.0 0.00 0.00 0.00 80 1010.4
20260505093019 52 315 1.0 3.0 0.00 0.00 0.00 80 1010.5
20260505092039 52 315 2.0 4.0 0.00 0.00 0.00 80 1010.3
20260505091019 52 338 2.0 7.0 0.00 0.00 0.00 80 1010.4
20260505090039 52 0 2.0 4.0 0.00 0.00 0.00 79 1010.4
20260505085019 52 0 1.0 4.0 0.00 0.00 0.00 79 1010.5
20260505084039 52 0.0 2.0 0.00 0.00 0.00 79 1010.5
20260505083019 52 0.0 3.0 0.00 0.00 0.00 78 1010.7
20260505082100 52 203 1.0 3.0 0.00 0.00 0.00 78 1010.9
20260505081039 52 135 1.0 3.0 0.00 0.00 0.00 77 1010.8
20260505080019 52 0.0 2.0 0.00 0.00 0.00 76 1010.8
20260505075019 52 315 1.0 4.0 0.00 0.00 0.00 76 1010.8
20260505074019 52 180 1.0 3.0 0.00 0.00 0.00 75 1010.9
20260505073039 53 0.0 1.0 0.00 0.00 0.00 75 1011.0
20260505072019 53 315 1.0 3.0 0.00 0.00 0.00 74 1011.0
20260505071039 53 68 1.0 4.0 0.00 0.00 0.00 74 1011.1
20260505070019 53 0 1.0 4.0 0.00 0.00 0.00 74 1011.1
20260505065019 53 338 1.0 4.0 0.00 0.00 0.00 73 1011.1
20260505064019 54 158 1.0 3.0 0.00 0.00 0.00 73 1011.1
20260505063039 54 338 1.0 3.0 0.00 0.00 0.00 73 1011.3
20260505062059 54 315 2.0 4.0 0.00 0.00 0.00 72 1011.2
20260505061019 54 315 2.0 4.0 0.00 0.00 0.00 72 1011.1
20260505060019 54 315 1.0 4.0 0.00 0.00 0.00 72 1011.1
20260505055039 54 338 1.0 3.0 0.00 0.00 0.00 72 1011.1
20260505054019 54 270 2.0 4.0 0.00 0.00 0.00 71 1011.3
20260505053019 54 315 2.0 5.0 0.00 0.00 0.00 71 1011.3
20260505052019 55 270 1.0 5.0 0.00 0.00 0.00 71 1011.2
20260505051018 55 315 1.0 4.0 0.00 0.00 0.00 70 1011.2
20260505041018 55 338 1.0 3.0 0.00 0.00 0.00 67 1011.3
20260505040018 55 23 1.0 4.0 0.00 0.00 0.00 67 1011.2
20260505035039 55 315 2.0 4.0 0.00 0.00 0.00 67 1011.2
20260505034019 55 315 1.0 5.0 0.00 0.00 0.00 66 1011.2
20260505033019 55 270 2.0 6.0 0.00 0.00 0.00 66 1011.2
20260505032019 56 293 1.0 4.0 0.00 0.00 0.00 64 1011.1
20260505031019 56 315 1.0 6.0 0.00 0.00 0.00 64 1011.1
20260505030039 57 315 2.0 4.0 0.00 0.00 0.00 63 1011.1
20260505025019 57 338 2.0 4.0 0.00 0.00 0.00 62 1011.1
20260505024019 57 293 2.0 5.0 0.00 0.00 0.00 61 1011.1
20260505023059 57 315 2.0 8.0 0.00 0.00 0.00 61 1011.2
20260505022059 58 293 2.0 4.0 0.00 0.00 0.00 60 1011.3